Notices

What's New in latest Release from April 7th, 2021:

- Updated Glossary, including Speed of Maximum Gust, and Total Hourly Precipitation

- Updated national and regional climate services offices contacts and prices information

- Addition of station inventory lists for 1981-2010, 1971-2000, and 1961-1990 Normals.

If you haven't already, please take our survey and provide feedback about our website: https://eccc.sondage-survey.ca/f/LanguageSelection.aspx?s=442ca660-fcf1-47c0-95a9-59707d6fd709

Hourly Data Report for November 22, 2019

PINAWA
MANITOBA
Current Station Operator: ECCC - MSC

50°10'38.020" N
96°03'53.000" W
268.00 m
503B1ER
71448
WEA

Download Data

Hourly Data (November 2019)
Hourly Data Report for November 22, 2019
TIME
LST
Temp Definition
°C
Dew Point Definition
°C
Rel Hum Definition
%
Precip. Amount Definition
mm

Wind Dir Definition
10's deg

Wind Spd Definition
km/h
Visibility Definition
km
Stn Press Definition
kPa
Hmdx Definition


Wind Chill Definition


Weather Definition


00:00 -11.8 LegendMM LegendMM 0.0 18 6   98.61   -16 LegendNANA
01:00 -11.0 LegendMM LegendMM 0.0 17 11   98.50   -17 LegendNANA
02:00 -10.1 LegendMM LegendMM 0.0 19 8   98.46   -15 LegendNANA
03:00 -9.6 LegendMM LegendMM 0.0 19 7   98.41   -14 LegendNANA
04:00 -9.1 LegendMM LegendMM 0.0 20 6   98.30   -12 LegendNANA
05:00 -7.6 LegendMM LegendMM 0.0 20 8   98.20   -12 LegendNANA
06:00 -6.9 LegendMM LegendMM 0.0 19 8   98.11   -11 LegendNANA
07:00 -6.6 LegendMM LegendMM 0.0 19 8   98.04   -10 LegendNANA
08:00 -6.4 LegendMM LegendMM 0.0 20 7   97.95   -10 LegendNANA
09:00 -5.8 LegendMM LegendMM 0.0 21 11   97.84   -11 LegendNANA
10:00 -3.5 LegendMM LegendMM 0.0 21 12   97.79   -8 LegendNANA
11:00 -1.6 LegendMM LegendMM 0.0 22 12   97.75   -6 LegendNANA
12:00 0.1 LegendMM LegendMM 0.0 21 11   97.66     LegendNANA
13:00 1.3 LegendMM LegendMM 0.0 21 11   97.53     LegendNANA
14:00 2.0 LegendMM LegendMM 0.0 22 11   97.43     LegendNANA
15:00 1.7 LegendMM LegendMM 0.0 20 11   97.36     LegendNANA
16:00 0.6 LegendMM LegendMM 0.0 21 10   97.30     LegendNANA
17:00 -0.7 LegendMM LegendMM 0.0 19 9   97.24   -4 LegendNANA
18:00 -1.1 LegendMM LegendMM 0.0 19 7   97.16   -4 LegendNANA
19:00 -1.6 LegendMM LegendMM 0.0 19 9   97.06   -5 LegendNANA
20:00 -1.7 LegendMM LegendMM 0.0 20 5   97.01   -4 LegendNANA
21:00 -2.4 LegendMM LegendMM 0.0 18 6   96.88   -5 LegendNANA
22:00 -1.3 LegendMM LegendMM 0.0 26 9   96.94   -5 LegendNANA
23:00 -1.9 LegendMM LegendMM 0.0 23 4   96.80   -3 LegendNANA

Notes on Data Quality.

Legend

  • E = Estimated
  • M = Missing
  • NA = Not Available*
  • [empty] = Indicates an unobserved value
Date modified: